DELTA 1 DEB, 10211

Orbit data source: Space-Track

DELTA 1 DEB, 10211 is space debris in LEO originally from a launch on Thu, 14 Jul 1977 UTC launched from the Air Force Eastern Test Range (AFETR). Debris objects in space refer to the collection of defunct objects orbiting the Earth. Examples of debris include non-operational satellites, rocket bodies, and fragments generated from explosions, collisions, or faulty payload assembly.

Loading next visibility...
Identifier
10211, 1977-065AQ
Orbit
LEO
Country
Flag of USUS
Related business
Manufacturer
Unknown
Mission
Spacecraft
Bus & Motor
Unknown
Mass
Unknown
Launch date (UTC)
1977-07-14 (49 years ago)
Launch vehicle
Unknown
Launch site
Air Force Eastern Test Range (AFETR)
Object type
Payload
Rocket body
Debris
Shape & HBR
Unknown shape, 0.1 m
Radar Cross Section
Medium (>0.1 m² and <1 m²)

Expand to show TLE details & history
Last TLE update: 10 hours ago

TLE from 10 hours ago
0 DELTA 1 DEB
1 10211U 77065AQ  26262.96968037  .00001596  00000-0  31777-2 0  9994
2 10211  29.4797 196.2542 0652410   2.9695 357.4482 12.71837708123006
Epoch: 2026-09-19T23:16Z
TLE epoch observation values (Epoch: 2026-09-19T23:16:20.383Z)
Latitude
-0.00003°
Longitude
-151.70136°
Altitude
867.896 km
Speed
7.658 km/s
True Right ascension
13h 05m 00s
True Declination
0° 00' 00"
Sunlit
Object was in daylight at epoch
Visualization orbit readout
Latitude
Unknown
Longitude
Unknown
Altitude
Unknown
Speed
Unknown
Apparent Right ascension
Unknown
Apparent Declination
Unknown
Sunlit
N/A
Visualization observer readout
Local Sidereal Time
02:39:59
Azimuth
Unknown
Elevation
Unknown
Doppler factor
Unknown
Orbital elements
Apogee altitude
1,884.135 km
Perigee altitude
872.084 km
Semi-major axis
7,756.246 km
Eccentricity
0.06524
Inclination
29.4797°
RAAN
196.2542°
Arg. of periapsis
2.9695°
True anomaly
357.08594°
Mean anomaly
357.4482°
Eccentric anomaly
357.27017°
Mean motion
3.17736 °/min
Orbital period
113.3 mins
BSTAR
0.0031777
Loading maneuver chart data...
Computing Atmospheric mass density...
Loading historical data...
Loading historical data...
Loading historical data...
Loading historical data...
Loading historical data...
Loading historical data...
Loading historical data...

Documentation

Showing up to 5 results
|